Location: Unspecified
(0.0000°N, 0.0000°E)
Time: 11:46:33
(UTC+00:00)

ISS - Pass Details

Date: 21 March 2019
Orbit: 408 x 411 km, 51.6° (Epoch: 24 March)

Event Time Altitude Azimuth Distance (km) Brightness Sun altitude
Exits shadow 04:29:35 11° 20° (NNE) 1,401 -0.9 -24.4°
Maximum altitude 04:31:20 15° 54° (NE) 1,190 -0.8 -24.0°
Drops below altitude 10° 04:33:20 10° 92° (E) 1,464 0.1 -23.5°
Sets 04:36:03 0° 116° (ESE) 2,328 1.1 -22.8°
